STARLINK-2235 (48581 NORAD) Tracking and Keplerian Element Data

This shows tracking and keplerian element data for the satellite.

Feedback or suggestion? Click here.




ElementValue
Catalog48581
NameSTARLINK-2235
Epoch Orbit363
Epoch Day210.91668981
Epoch Year2021
RAAN125.1848
Inclination53.0527
Eccentricity0.0001314
Argument of Perigee58.5451
Mean Anonmoly210.5945
Mean Motion15.42195795
Decay Rate-0.00080051
L11 48581U 21041AE 21210.91668981 -.00080051 00000-0 -18469-2 0 9994
L22 48581 53.0527 125.1848 0001314 58.5451 210.5945 15.42195795 3632

Live tracking and technical data element details for STARLINK-2235 (NORAD 48581). STARLINK-2235 can be tracked NOW for your location showing map with azimuth and elevation plus other details from your city location.

Track the satellite on the map from your city or location and see movement details for azimuth, elevation, latitude, longitude, range, height, and movement on the map or in text.







IsCatalogInMostPopularTable: catalog: 48581, numindb: 20
Update: records affected: 1



GetName: 48581 STARLINK-2235

Hit Count: updated at: Sat, 31 Jul 2021 15:51:09 GMT